Погода в Никольском

Россия / Ивановская область     56°57′19″N   40°19′35″E
В апреле 2022 года жителям России запретили посещать сайт meteo.paraplan.net по решению Генеральной прокуратуры. Аудитория сайта уменьшилась в 10 раз. Владельцы сайта не видят смысла в поддержке погодного сервера в таких условиях. Сайт будет закрыт в октябре.
темп.,
°C
ветер,
м/с
пор.,
м/с
влажн.,
%
обл.,
%
осадки,
мм/ч
давл.,
гПа
погр.,
м
25 сентября, вс
вс2500:00+7юв4991100 0.1 10001114
03:00+7юв4892100 0.6 10011131
06:00+8вюв51192100 1.0 10011254
09:00+8вюв5989100 1.6 10021069
12:00+8вюв4989100 0.4 10041209
15:00+9юв3986100 0.6 1004775
18:00+8в229397 0.1 100538
21:00+8в019271 0.1 100514
26 сентября, пн
пн2600:00+6сз2295100 0.0 100534
03:00+7сз2494100 0.0 1005112
06:00+7зсз2394100 0.0 100594
09:00+8зсз3587100 0.1 1006296
12:00+10зсз3581100 1.2 1006358
15:00+10сз2483100 2.5 1008287
18:00+8сз2691100 0.4 1009248
21:00+7зсз0191100 0.7 101113
27 сентября, вт
вт2700:00+6ю229498 0.0 101254
03:00+5ю2296100 0.0 101231
06:00+4вюв119611 0.0 101315
09:00+8юв23866 0.0 1014272
12:00+11юв236926 0.2 1015976
15:00+12юв246487 0.6 10151057
18:00+9вюв237699 0.2 101570
21:00+6в37915 0.2 1016141
28 сентября, ср
ср2800:00+5в269443 0.0 1017113
03:00+7в2889100 0.1 1017247
06:00+7в41094100 0.2 1016437
09:00+6в51193100 0.3 1017546
12:00+7в61179100 0.0 1017715
15:00+8в61071100 0.0 1016870
18:00+6в61275100 0.0 1015962
21:00+6в61377100 0.0 1015865
29 сентября, чт
чт2900:00+5в61588100 0.9 1014780
03:00+5в71692100 2.6 1013768
06:00+4в71690100 1.7 1014765
09:00+3в71692100 3.8 1015780
12:00+2в61592100 1.8 1016788
15:00+2в51594100 5.1 1018751
18:00+3в51388100 2.0 1020788
21:00+3в41187100 2.7 1022749